User: anonymous   Login
Location: Caltech
(34.1382°N, 118.1253°W)
Time: 18:02:23
(UTC-08:00)
Language:

Meteor 2-4 Rocket - Orbit

View from above orbital plane
View from above orbital plane
View from above satellite
View from above satellite

Ground track
Ground track

The orbit data is extracted from the following two-line orbital elements,

1 11289U 79021B   14354.07111064  .00000236  00000-0  12073-3 0  7925
2 11289 081.2472 332.0061 0074291 296.2888 129.5911 14.11470217842446
Epoch (UTC): 20 December 2014 01:42:23
Eccentricity: 0.0074291
inclination: 81.2472°
perigee height: 800 km
apogee height: 908 km
right ascension of ascending node: 332.0061°
argument of perigee: 296.2888°
revolutions per day: 14.11470217
mean anomaly at epoch: 129.5911°
orbit number at epoch: 84244

The dashed part of the orbit path shows where the satellite is in the earth's shadow,  

DLR